EUTELSAT 172B

Last updated on Sat Sep 12 2026 00:03:03 GMT+0000 (Coordinated Universal Time)

1 42741U 17029B 26254.56368183 -.00000023 00000+0 00000+0 0 9990 2 42741 0.0232 140.5666 0000022 337.8562 247.0910 1.00270428 34614
UTC large
Height (km)
Speed (km/s)
/
Latitude / Longitude
Inclination (degrees)
Orbital Period (minutes)
Azimuth
Elevation
Range (km)
Doppler Factor

Next 0 passes for location: London (51.5072 / 0.1276)

No passes found over London.
EUTELSAT 172B